Location: Santa Cristina
(46.5667°N, 11.7167°E)
Time: 04:41:31
(UTC+00:00)

Cosmos 1378 - Pass Details

Date: 21 April 2021
Orbit: 490 x 499 km, 82.5° (Epoch: 10 May)

Event Time Altitude Azimuth Distance (km) Brightness Sun altitude
Exits shadow 02:18:58 49° 241° (WSW) 645 3.2 -18.1°
Maximum altitude 02:19:35 57° 281° (WNW) 588 3.2 -18.0°
Drops below altitude 10° 02:23:14 10° 1° (N) 1,693 6.4 -17.6°
Sets 02:25:23 0° 6° (N) 2,580 7.5 -17.3°
